Theta_e
313 312 313 314 314 315 317 316 316 318 318 318 316 315 316 315 315 318 318 318 319 317 317 318 320 325 328 328 329 331 332 331 331 332 332 333 333 333 335 338 342 344 344 344 344 343 343 343 343 343 342 342 342 342 341 340 341 341 338 337 339 339 337 335 336 338 337 338 338 337 338 338 337 338 338 339 338 337 339 339 338 338 336 336 335 334
314 312 313 315 314 316 317 317 317 318 318 318 316 315 316 315 315 318 318 318 319 317 318 318 320 325 328 329 331 333 333 333 335 335 335 334 334 336 337 339 342 342 342 342 343 342 342 342 342 341 342 342 342 342 342 341 341 342 340 338 339 339 337 335 336 337 336 337 338 337 337 337 337 338 338 338 338 338 338 338 336 336 336 337 336 334
313 312 313 315 315 315 316 317 317 318 318 318 317 315 314 315 316 317 318 318 318 317 318 320 322 325 327 327 330 333 333 333 334 334 335 336 336 337 338 338 339 339 339 339 339 339 339 340 340 340 341 341 341 341 341 340 340 340 341 339 339 338 336 335 335 335 336 337 337 337 336 335 335 336 336 336 336 337 336 335 334 334 334 335 335 334
313 313 314 315 315 315 316 317 317 318 318 318 317 314 313 315 315 314 316 317 318 318 320 322 324 327 327 326 330 332 332 333 332 333 334 334 333 333 333 334 335 335 335 335 335 336 336 336 337 337 337 338 338 338 338 337 338 338 338 338 338 336 335 335 335 333 334 335 336 336 336 335 335 336 336 336 336 336 336 335 334 334 333 334 335 335
314 314 314 315 314 315 316 316 317 317 317 317 317 315 314 316 315 315 316 318 317 318 322 322 322 325 327 326 329 330 331 332 332 331 331 331 331 330 330 330 331 331 332 332 332 332 333 334 334 334 334 336 336 335 335 335 335 335 335 335 335 335 334 335 334 333 333 335 336 335 336 336 336 336 336 337 337 335 335 335 334 334 333 333 335 335
315 315 315 314 313 314 316 316 316 317 316 316 316 316 316 317 317 317 317 316 315 315 320 321 318 320 324 326 328 329 329 330 331 330 329 329 329 328 328 328 327 328 328 329 329 330 330 330 331 331 332 333 333 333 333 333 333 334 333 334 334 334 334 334 334 334 334 335 336 336 336 336 336 337 337 336 335 333 333 334 334 334 333 333 334 334
316 316 314 314 313 313 315 316 316 318 316 313 315 317 317 317 317 317 316 315 313 314 320 322 318 317 322 325 327 328 327 328 329 329 328 327 327 326 325 325 326 326 326 327 327 328 328 329 329 329 329 330 330 330 331 332 332 333 333 333 334 334 334 334 333 334 334 335 336 335 336 335 335 336 336 335 334 333 333 333 333 334 334 334 334 334
316 316 315 314 314 314 315 317 317 317 314 314 316 316 317 317 316 317 317 315 315 316 319 321 318 317 321 326 327 328 327 327 328 328 327 326 325 324 323 324 324 325 325 326 326 327 327 328 328 328 327 328 328 329 329 330 330 331 331 332 333 333 333 334 333 333 334 334 335 335 335 335 335 335 335 334 334 333 333 333 333 334 334 334 333 333
316 316 315 314 315 315 316 316 316 315 314 315 317 316 316 317 316 318 317 315 316 316 316 318 318 315 319 327 328 327 328 328 328 326 325 325 324 323 323 323 324 324 325 326 326 326 326 326 326 326 326 327 327 327 328 328 329 329 330 330 331 331 332 333 333 333 333 332 332 333 334 335 335 335 334 334 334 334 334 334 333 334 334 334 333 332
315 315 316 315 315 315 315 315 315 315 314 316 318 317 316 317 317 317 317 315 315 315 314 316 318 314 316 326 329 327 328 328 328 325 324 324 323 323 323 323 323 324 324 325 325 325 325 325 325 325 325 325 325 325 326 326 327 328 328 328 329 330 330 331 331 332 333 332 332 333 334 334 335 335 334 334 335 335 335 334 334 335 335 334 333 332
315 316 317 316 315 315 315 315 316 315 315 316 317 317 316 316 316 316 316 315 314 314 314 316 318 315 317 326 329 327 328 328 327 325 323 324 323 322 322 321 322 323 324 324 324 324 323 323 323 324 324 324 324 324 324 324 325 326 326 326 327 328 329 329 329 330 331 332 332 332 333 333 333 333 333 334 335 334 334 333 333 335 335 335 334 331
315 316 316 316 316 316 315 315 316 316 315 316 317 316 314 314 314 314 314 314 313 313 313 315 318 315 316 325 329 328 328 327 326 325 323 323 322 322 322 321 321 322 323 323 322 322 322 322 322 322 322 322 322 322 322 323 323 324 324 324 325 326 327 327 328 328 329 330 332 332 331 332 331 331 332 333 333 333 333 332 333 334 335 335 334 331
315 316 315 315 316 316 315 314 315 316 315 316 316 315 313 312 313 313 313 313 313 313 313 316 316 314 319 327 329 328 328 325 325 324 322 322 322 322 321 321 321 321 321 321 321 321 321 320 320 321 321 321 321 321 321 322 322 323 323 323 323 324 325 326 326 327 328 329 330 331 331 331 331 332 332 332 333 333 332 331 332 333 333 335 334 332
313 315 315 315 315 315 316 314 313 314 314 315 314 314 313 312 313 314 313 313 313 313 314 316 315 318 326 331 328 326 326 324 324 322 322 322 321 321 321 321 320 320 320 320 320 320 319 319 319 319 319 319 319 320 320 320 321 321 322 322 322 322 324 325 326 326 326 327 327 328 330 330 330 331 332 333 333 333 332 332 332 331 332 332 333 333
312 314 315 314 315 315 316 315 315 315 314 315 315 315 313 312 314 314 313 313 312 313 315 315 316 321 330 331 326 325 324 323 323 321 321 321 320 320 320 320 320 319 319 319 318 318 318 318 318 318 318 318 318 318 319 319 319 320 320 320 321 321 322 323 325 326 326 326 326 326 327 328 329 330 331 332 333 333 333 332 332 331 330 330 331 332
311 313 315 315 315 315 315 316 317 316 314 315 315 314 313 313 314 313 314 315 314 314 314 316 322 326 329 328 326 325 324 323 323 321 321 320 320 320 319 319 318 318 318 318 317 317 317 317 317 317 317 317 317 317 318 318 318 318 319 319 320 320 320 321 323 324 324 324 325 326 326 327 328 329 329 331 332 332 331 330 331 330 329 329 328 329
312 313 315 316 315 316 316 317 317 315 314 314 313 312 314 316 316 313 314 317 316 314 313 319 329 329 328 328 326 323 323 322 321 321 321 320 319 319 318 318 317 317 316 316 316 316 315 315 316 316 316 316 316 316 316 317 317 317 318 318 318 318 319 320 320 321 321 322 323 325 326 326 327 328 329 329 330 331 330 329 330 330 329 329 328 327
314 313 315 315 314 315 316 316 316 316 316 314 312 314 315 316 317 314 314 315 314 315 314 319 331 331 329 330 327 323 323 322 320 321 320 319 318 318 317 317 316 316 315 315 315 314 314 314 315 315 315 315 315 315 315 316 317 317 317 317 317 317 318 318 319 319 319 320 320 321 322 323 325 327 328 328 328 329 330 330 330 331 330 330 330 328
315 313 314 315 315 315 315 315 315 316 316 315 314 315 315 314 314 313 314 314 314 315 316 318 328 330 328 329 327 325 324 322 320 320 319 319 318 317 317 316 315 315 314 314 314 314 314 314 314 314 314 314 315 315 315 316 316 317 316 316 317 317 317 317 318 318 318 318 318 318 319 320 321 323 325 326 327 328 329 330 330 330 330 330 329 329
316 314 314 315 315 314 314 314 313 314 315 316 315 315 315 314 313 313 313 315 313 313 317 317 322 327 327 327 328 325 324 323 321 319 318 318 317 317 316 316 315 314 314 313 313 313 313 313 313 314 314 314 314 314 315 315 316 316 316 316 317 316 316 316 317 317 317 317 317 318 318 318 319 319 321 323 325 326 327 329 330 330 330 330 329 328
316 315 313 315 314 314 314 313 313 314 313 314 314 313 314 313 315 315 313 315 313 312 316 315 319 327 327 326 327 325 324 323 321 319 318 318 317 316 315 315 314 313 312 312 312 313 313 313 313 313 314 315 315 314 315 315 315 315 315 315 316 316 316 315 316 316 316 317 317 317 317 317 318 318 318 319 320 322 324 326 328 330 330 331 330 330
316 315 314 314 313 312 313 313 314 315 314 315 314 313 314 313 313 314 313 314 313 313 314 314 321 329 325 324 327 325 323 323 321 319 318 317 316 315 314 314 313 313 312 312 312 312 313 313 313 314 315 315 314 314 314 314 314 314 314 314 315 315 315 315 315 316 316 316 316 317 317 317 317 317 318 318 319 320 321 322 324 326 328 329 329 329
316 315 314 314 313 313 314 314 315 316 315 315 314 315 315 314 313 312 312 314 312 314 313 312 325 328 321 321 324 323 322 321 319 318 317 316 315 314 314 313 312 312 311 311 312 312 312 313 313 314 314 313 313 313 313 313 313 313 313 313 313 314 314 314 315 315 315 315 315 316 316 316 316 316 316 317 318 319 320 321 321 322 324 326 328 329
316 316 314 313 313 313 314 315 315 316 317 315 314 315 315 314 315 313 314 316 312 314 313 312 325 327 319 319 320 319 319 319 317 317 316 315 314 314 313 313 312 311 311 311 311 311 312 312 313 312 312 312 312 312 312 312 312 312 312 312 312 312 313 313 313 314 314 314 315 315 315 315 315 315 316 316 317 318 320 320 321 321 322 324 325 327
315 315 314 314 314 314 316 316 315 315 316 316 314 315 315 315 316 314 316 316 313 314 313 312 324 325 318 317 317 316 317 316 316 316 315 314 314 313 313 312 311 311 311 311 311 311 312 312 312 312 311 311 311 311 311 311 311 311 311 311 311 312 312 312 313 313 314 314 314 314 314 314 314 314 315 315 315 316 317 319 320 321 321 322 323 324
315 315 315 315 314 314 316 316 315 314 315 316 316 315 315 315 315 315 314 313 313 315 312 314 323 321 317 315 315 314 314 314 315 315 314 314 314 313 313 312 311 311 311 312 312 311 311 311 312 312 311 311 311 311 310 310 310 311 310 310 311 311 311 312 312 313 313 313 313 313 313 313 313 313 314 314 314 314 315 316 318 319 320 321 321 322
316 318 320 319 317 316 316 315 315 316 315 315 315 315 316 316 316 316 313 313 314 314 314 319 322 319 317 315 314 313 313 313 313 313 313 313 313 313 312 311 310 310 311 312 312 311 311 311 311 311 311 311 311 311 311 311 310 310 310 310 310 310 311 311 311 312 312 312 312 312 312 312 312 312 312 313 313 313 313 313 315 317 319 320 320 320
317 321 324 324 321 319 319 318 317 317 315 315 315 315 316 317 317 316 314 316 317 315 319 324 321 319 317 315 313 313 312 312 312 312 312 312 312 312 311 311 310 309 310 312 311 310 310 310 310 310 310 310 310 310 311 311 310 310 310 310 310 310 310 310 311 311 311 311 311 311 311 311 311 311 311 311 312 312 312 312 313 315 316 318 319 320
317 320 324 324 321 320 320 320 318 316 316 316 316 318 318 317 318 317 316 319 321 320 323 324 322 319 317 314 313 312 311 311 311 311 311 311 311 311 311 311 310 310 311 311 310 310 310 309 309 309 308 309 309 309 309 309 309 309 309 309 309 309 310 310 311 311 311 311 311 311 311 310 310 311 310 310 310 310 311 311 312 313 314 315 317 318
317 321 323 323 322 320 320 320 320 319 319 319 317 318 318 317 318 319 319 321 324 325 325 323 321 319 315 313 312 311 310 310 310 310 310 310 310 311 311 310 311 311 310 310 309 309 309 309 308 308 308 308 308 308 308 308 308 308 309 309 309 309 309 310 310 310 310 310 310 310 310 310 310 310 309 310 310 310 310 310 310 311 312 313 314 316
319 321 323 323 322 322 322 321 321 321 321 322 320 319 319 321 322 324 325 326 326 325 323 320 317 315 313 311 310 309 309 308 308 308 309 309 310 310 310 310 311 310 310 309 309 309 308 308 308 308 307 307 307 307 307 307 308 308 308 308 308 308 309 309 309 309 309 309 310 309 309 309 309 309 309 309 309 309 309 309 309 310 311 312 312 313
319 320 323 322 321 322 323 322 323 323 323 324 323 323 323 325 326 325 326 326 325 322 319 317 315 312 310 309 308 308 308 307 307 308 308 308 309 309 310 310 310 309 309 308 308 308 308 308 307 307 307 307 307 307 307 307 307 307 307 308 308 308 308 308 309 309 309 309 308 308 308 308 308 308 308 308 308 308 308 308 308 309 310 311 311 312
318 320 322 320 320 322 323 323 323 321 320 321 320 320 322 323 324 324 323 324 323 321 319 319 315 310 309 309 308 307 307 307 307 307 307 307 308 309 309 309 309 308 308 308 307 307 307 307 307 306 306 306 306 306 306 306 307 307 307 307 307 307 308 308 308 308 308 308 307 307 307 307 307 307 307 307 307 307 307 307 307 307 308 309 310 310
319 320 320 320 320 322 322 323 322 320 318 318 316 316 319 321 322 322 320 319 318 317 316 315 311 308 308 308 307 307 307 306 307 307 307 307 308 308 308 308 307 307 307 307 307 306 306 306 306 306 305 305 306 306 306 306 306 306 307 306 306 307 307 307 307 307 307 307 307 307 307 307 307 307 307 307 307 306 306 306 306 306 307 307 308 309
319 319 320 319 319 320 320 322 324 322 318 316 314 315 318 319 318 317 316 316 315 313 311 310 308 308 308 308 307 306 306 305 306 306 306 306 306 307 307 306 307 307 306 306 306 305 305 305 305 305 305 305 305 305 305 306 306 306 306 306 306 306 306 306 306 306 306 306 306 306 306 306 306 306 306 306 306 306 306 306 305 305 305 306 306 307
319 319 319 318 318 319 319 321 323 320 315 314 315 315 316 316 315 315 314 313 313 312 310 309 308 308 308 306 306 305 305 305 305 305 305 305 305 306 306 306 306 305 305 305 305 305 305 305 304 305 304 304 305 305 305 305 305 306 306 306 306 306 306 306 305 305 305 305 305 305 305 306 306 306 306 306 306 306 305 305 305 305 304 304 305 305
319 318 318 318 319 319 319 319 317 315 315 315 315 315 316 316 316 316 314 311 311 311 310 308 306 306 306 305 305 304 304 304 304 304 304 304 305 305 305 305 305 305 305 304 304 304 304 304 304 304 304 304 305 304 305 305 305 305 305 305 305 305 305 305 305 305 305 305 305 305 305 305 305 305 305 305 305 305 305 304 304 304 304 304 304 304
319 319 318 318 318 317 318 318 316 317 318 317 315 315 316 317 316 315 314 311 311 310 309 307 306 305 305 305 304 304 305 305 304 303 304 304 304 304 304 304 304 304 304 304 304 304 304 304 304 304 304 304 304 304 304 304 304 305 305 305 305 305 305 304 304 304 304 304 304 304 304 304 304 305 305 305 305 305 304 304 304 303 303 303 303 303
320 320 318 317 318 317 318 319 319 319 319 317 315 315 315 317 317 316 317 314 310 309 309 307 306 306 305 305 305 306 307 306 304 303 303 303 304 304 304 304 304 304 304 304 304 303 303 303 303 303 304 304 304 304 303 303 304 304 304 304 304 304 304 304 304 304 304 304 304 304 304 304 304 304 304 304 304 304 304 304 303 303 303 303 303 303
319 319 317 317 318 318 318 318 318 317 316 316 316 315 316 316 316 318 319 316 310 309 309 308 307 306 306 305 306 308 309 307 304 303 303 303 303 303 303 303 303 303 303 303 303 303 303 303 303 303 303 303 303 303 303 303 303 303 303 303 303 303 303 303 303 303 303 303 303 303 303 303 303 303 303 303 303 303 303 303 303 303 303 302 302 302
319 318 317 317 317 317 317 318 316 315 315 316 315 315 315 316 317 318 318 314 310 309 309 308 308 307 307 307 307 309 309 306 303 303 303 303 303 303 303 303 303 303 303 303 303 303 303 303 303 303 303 303 303 303 303 303 303 302 303 302 302 303 303 303 303 303 303 303 303 303 303 303 303 303 303 303 303 303 303 302 302 303 302 302 302 302
318 317 317 317 317 317 317 317 316 315 314 314 315 315 315 316 317 316 314 311 309 309 309 308 308 307 307 307 307 306 305 304 303 303 302 303 303 303 302 303 303 303 303 302 303 303 303 303 303 303 302 302 302 302 302 302 302 302 302 302 302 302 302 302 302 302 302 302 302 302 302 302 302 302 302 302 302 302 302 302 302 302 302 302 302 302
317 316 316 316 316 316 317 317 317 316 314 314 314 314 314 315 315 313 311 310 309 308 308 307 307 307 306 306 305 304 303 303 302 303 303 303 303 303 303 303 303 303 303 303 303 303 303 303 303 302 302 302 302 302 302 302 302 302 301 301 301 301 301 301 302 302 302 302 302 302 302 302 302 302 302 302 302 302 302 302 301 301 301 301 301 301
316 317 316 316 315 316 316 316 316 315 314 314 314 314 313 314 313 312 311 310 308 307 307 307 306 306 305 304 303 303 303 303 303 303 303 303 303 303 303 303 303 303 303 302 302 302 303 303 302 302 302 302 302 302 302 302 301 301 301 301 301 301 301 301 301 301 301 301 301 301 301 301 302 302 302 301 301 301 301 301 301 300 300 300 301 301
315 315 316 314 312 314 315 314 313 314 313 313 314 313 313 313 312 311 311 310 309 308 307 306 305 305 304 303 303 303 303 303 303 303 303 303 303 303 303 303 303 303 302 302 302 302 302 302 302 302 302 302 302 302 302 301 301 301 301 301 300 300 301 301 301 301 301 301 301 301 301 301 301 302 302 301 301 301 301 301 300 300 300 300 300 300
314 315 315 312 310 310 311 311 312 313 313 312 312 312 312 312 311 311 310 309 309 309 307 306 305 304 304 304 304 304 304 304 304 303 303 303 303 303 303 303 303 302 302 302 302 302 302 302 302 302 302 302 302 302 302 302 301 301 301 301 300 300 300 300 300 300 301 300 300 300 301 300 301 301 302 302 301 301 300 300 300 299 299 299 299 299
314 315 315 313 311 312 311 310 311 312 311 311 311 311 311 311 311 310 310 309 309 308 307 306 305 304 304 304 304 304 304 304 304 304 304 304 303 303 303 302 302 301 301 301 301 301 301 301 302 302 301 302 302 302 302 302 301 301 301 301 301 301 300 300 300 300 300 300 300 300 300 300 300 301 301 301 302 301 300 300 300 299 299 298 299 299
314 314 314 313 312 312 311 310 311 311 311 311 310 310 311 310 310 310 309 309 308 307 306 306 305 305 305 305 304 304 304 304 304 304 304 303 303 302 302 301 300 299 299 299 300 300 301 301 301 301 301 301 301 301 301 301 301 301 301 301 301 301 300 300 300 300 300 300 300 299 299 299 300 300 300 301 301 301 300 300 300 300 299 298 298 298
313 313 313 311 310 309 309 309 310 310 310 310 310 310 310 310 309 309 308 308 307 307 306 306 306 305 305 305 304 304 304 304 304 304 303 303 302 301 300 300 299 299 298 298 299 300 301 301 301 301 301 301 300 300 300 301 302 302 301 301 301 301 300 300 300 300 300 300 299 299 299 299 299 299 299 300 300 300 300 300 300 299 299 298 298 297
313 312 311 310 309 309 309 310 310 310 309 309 309 309 309 309 308 308 307 307 307 306 306 306 305 305 305 305 305 305 304 304 303 303 302 301 300 300 300 299 299 298 299 299 299 300 300 300 300 301 301 300 300 300 300 301 302 302 301 301 301 300 300 300 300 300 299 299 299 299 299 299 299 299 299 299 299 299 300 300 300 299 299 299 298 298
312 312 311 311 311 311 310 310 311 311 310 308 308 308 308 308 308 307 307 307 307 306 306 305 305 305 305 305 305 304 303 303 302 301 301 300 300 300 299 299 298 298 299 299 300 300 300 300 300 300 300 300 300 299 299 300 301 302 301 301 300 300 300 300 300 300 299 299 299 299 299 299 299 299 299 299 299 299 299 300 300 299 299 299 299 298
Wind_Speed
16 11 11 12 12 14 15 16 17 13 9 11 14 12 10 10 10 10 14 18 19 13 13 18 14 12 10 10 10 11 12 10 10 8 6 7 7 11 13 10 11 12 12 13 12 11 10 8 8 7 7 6 7 5 5 5 3 3 2 2 2 4 5 3 1 3 5 6 8 10 11 12 13 13 14 14 15 14 11 11 11 11 12 12 14 18
15 11 13 16 15 16 17 16 18 13 9 9 12 11 10 10 10 9 11 16 18 13 12 17 15 12 10 10 10 11 14 13 12 11 8 9 11 14 14 13 13 14 14 14 13 12 11 10 9 9 8 6 7 6 4 4 2 1 1 1 1 4 4 3 2 4 5 6 8 9 10 10 11 12 13 13 14 13 12 11 12 12 13 14 16 18
13 12 15 18 16 16 16 15 17 13 9 9 9 10 9 10 10 9 11 13 15 11 9 12 11 10 9 9 9 11 15 15 14 13 12 12 15 16 15 15 15 14 15 15 14 13 11 12 12 12 10 8 8 7 5 5 4 3 1 0 3 6 5 4 5 4 4 5 6 7 9 9 9 12 14 13 13 14 14 14 15 15 15 16 17 19
10 12 16 17 16 16 15 16 17 11 9 9 9 10 8 11 13 9 11 14 14 9 7 11 9 8 9 10 8 12 18 18 16 15 15 16 16 16 15 15 15 14 13 13 12 12 10 11 13 13 12 10 9 8 6 4 4 3 1 2 3 5 3 4 6 4 4 4 4 6 8 8 9 11 12 13 12 13 14 15 15 16 16 17 18 20
11 13 18 18 17 17 15 17 17 11 8 11 11 10 9 13 13 9 11 13 13 11 9 13 9 6 9 11 9 11 17 17 16 15 15 15 15 15 15 15 15 13 12 12 11 11 10 10 10 11 10 9 9 9 8 6 5 4 2 3 3 4 4 4 6 4 2 2 4 6 7 7 8 10 10 9 10 11 13 14 14 14 15 16 18 18
12 13 18 19 18 19 17 15 16 12 9 10 12 12 11 12 12 13 15 13 10 10 11 14 10 7 11 13 11 9 11 13 14 13 13 13 13 13 15 14 12 12 11 11 10 10 11 10 9 9 8 8 8 8 7 6 6 5 3 4 4 3 4 4 5 4 2 2 5 6 6 7 7 8 8 9 10 12 13 13 14 14 16 16 16 17
11 13 16 18 18 20 18 14 16 15 9 8 11 15 14 12 12 14 16 13 8 9 12 15 10 6 11 12 12 11 10 11 11 11 11 11 12 13 13 11 11 10 10 9 10 11 11 11 10 10 9 8 9 8 7 6 5 3 3 3 3 2 3 4 4 3 3 3 5 6 6 7 7 8 8 10 12 13 14 14 14 15 17 16 16 17
11 14 16 18 18 17 15 12 16 17 12 7 12 16 15 11 12 13 14 12 8 8 12 16 14 7 8 10 13 14 11 11 10 9 10 11 12 12 12 11 11 10 9 9 10 11 12 12 12 12 11 10 10 9 8 7 5 3 3 2 1 1 1 3 4 3 3 4 5 6 6 6 8 8 9 10 11 12 14 15 15 16 16 16 16 17
12 15 16 18 16 13 13 13 15 18 14 9 12 15 12 9 13 14 12 11 9 9 9 14 15 9 7 9 11 14 13 11 11 8 8 10 11 11 11 11 11 11 11 11 11 12 13 12 12 12 11 11 10 10 9 9 8 6 3 1 0 1 1 1 3 3 3 5 5 5 7 7 8 9 10 10 11 12 13 14 14 14 16 16 16 17
12 15 16 17 14 12 13 14 16 17 15 13 13 15 12 10 11 11 10 10 9 10 9 12 15 11 7 9 10 12 13 11 10 8 8 9 10 11 11 10 10 10 11 12 12 12 12 12 12 11 11 11 11 10 10 9 8 8 7 6 4 2 2 2 3 3 4 5 5 6 7 9 10 11 11 10 11 12 14 15 15 14 15 16 16 17
11 12 13 14 13 12 14 15 15 17 17 16 11 13 12 10 9 8 9 10 9 10 11 13 15 13 7 8 9 9 11 14 11 9 8 10 11 10 11 10 10 10 10 11 12 12 12 12 11 11 11 12 11 11 10 9 8 8 8 9 8 6 5 4 4 4 4 5 6 7 8 9 11 12 12 11 12 13 15 17 16 15 14 15 16 17
12 12 11 13 15 15 13 14 15 16 19 17 9 9 11 9 8 8 8 9 9 10 13 15 18 18 10 5 7 6 12 16 12 9 9 10 11 10 10 9 9 9 10 10 11 11 11 11 11 11 11 12 12 12 11 10 9 9 9 10 10 8 7 6 6 5 4 3 5 8 10 9 10 11 11 11 11 13 15 17 16 14 14 14 15 17
13 12 13 14 18 18 13 12 13 14 16 14 10 11 11 9 8 8 9 9 9 10 11 15 19 15 4 3 11 15 15 15 14 12 11 11 12 11 10 9 9 9 9 10 10 10 10 10 11 11 11 11 11 11 11 10 9 9 10 11 10 9 8 7 6 7 6 4 4 6 9 9 9 11 11 11 12 13 14 16 16 15 16 15 15 16
11 12 15 15 15 18 16 12 11 11 13 13 12 11 10 9 9 10 9 9 9 9 9 14 17 10 6 7 12 17 17 18 19 15 12 12 12 11 10 9 9 9 9 10 10 10 10 10 10 10 11 11 11 11 10 10 10 9 10 11 11 11 9 8 7 7 7 7 6 5 6 8 9 11 11 11 12 14 14 15 16 16 17 16 14 15
13 11 14 15 12 17 19 14 12 12 12 13 12 12 10 9 8 9 9 9 10 9 8 12 11 6 7 7 11 16 19 21 21 17 13 12 11 10 10 9 9 9 9 9 9 10 10 10 10 10 11 11 11 11 10 10 11 10 10 11 12 12 11 10 9 9 8 8 8 7 6 7 8 10 10 10 11 13 14 15 16 16 16 17 17 17
15 11 13 16 13 17 18 14 15 14 11 11 12 11 11 10 9 8 7 5 6 8 8 7 2 4 5 9 14 16 17 18 18 17 13 11 10 9 9 9 8 8 9 9 10 11 11 11 11 11 12 11 11 11 11 11 11 11 11 12 12 12 12 11 10 10 9 9 9 7 7 7 8 8 9 9 10 13 17 17 17 17 16 17 18 19
13 10 15 19 14 17 18 14 16 15 9 9 11 12 11 12 11 8 6 3 4 8 9 6 5 6 6 7 12 15 14 14 15 15 13 12 11 10 9 9 9 9 9 10 10 11 12 12 12 12 12 12 11 11 12 12 12 12 12 13 14 14 13 12 12 12 10 10 10 9 8 8 8 9 10 10 9 12 16 18 17 17 16 18 19 20
11 9 15 21 15 17 21 18 18 17 13 9 10 11 10 12 12 8 7 7 7 9 8 9 9 9 7 6 10 15 15 13 13 14 14 13 12 10 10 9 9 9 9 10 10 11 11 11 11 11 11 12 12 11 11 12 12 13 13 14 14 15 15 14 14 14 13 12 11 11 10 10 10 10 11 12 11 11 13 15 16 16 16 17 18 18
12 7 11 20 17 16 20 18 15 16 18 14 11 12 10 11 12 9 7 8 10 9 8 10 12 9 7 8 12 16 16 16 14 14 14 14 12 12 11 10 9 9 9 9 10 10 10 9 10 10 11 11 11 11 11 11 12 13 13 13 14 15 15 15 13 13 14 13 12 12 12 12 11 11 11 13 14 13 13 13 14 16 16 17 17 17
11 7 8 16 19 16 15 14 11 12 17 17 13 13 11 9 10 9 8 7 9 9 8 10 11 7 5 9 16 17 16 17 16 13 13 13 13 12 11 10 10 9 9 9 9 9 9 9 10 10 11 12 12 12 12 11 12 13 13 14 15 15 15 14 14 14 14 14 13 14 15 13 11 11 12 12 14 15 15 14 13 14 15 15 16 17
10 7 7 13 17 15 11 12 14 14 15 13 12 12 11 9 9 9 9 8 8 9 8 8 9 4 2 3 13 17 15 16 16 13 13 14 14 12 12 11 10 10 9 9 8 8 8 9 10 11 12 12 12 13 12 12 13 14 14 14 13 14 14 14 14 15 15 14 13 14 16 15 14 13 14 14 14 14 15 17 17 16 16 15 15 16
8 7 8 10 13 14 11 14 18 17 16 13 10 11 12 11 10 10 10 10 9 8 8 8 6 3 6 3 7 12 12 15 17 16 15 15 15 14 13 11 11 10 10 9 8 8 9 9 11 12 12 12 13 13 13 14 14 14 15 14 12 13 14 14 14 15 15 15 15 16 15 16 15 15 16 15 14 15 15 17 18 19 19 19 18 16
7 6 9 10 11 13 15 18 19 17 17 15 12 12 12 11 11 10 9 10 9 8 10 8 5 5 5 5 5 11 14 17 19 18 18 17 15 15 14 12 12 11 10 9 8 9 10 10 11 12 12 13 13 13 13 14 14 14 15 15 14 14 14 15 15 15 16 15 16 17 16 17 17 16 16 17 15 15 16 17 18 18 19 20 21 19
5 5 8 9 10 12 13 15 15 13 13 14 13 13 13 12 13 11 8 8 8 9 10 6 5 4 3 6 10 16 20 20 18 18 18 18 16 15 14 13 12 11 10 9 10 10 11 11 12 12 13 14 13 13 14 14 15 15 16 16 16 16 16 16 16 16 17 18 18 18 18 18 17 16 18 18 16 16 16 16 18 19 19 19 21 21
6 7 8 8 9 10 8 9 13 12 11 11 11 14 15 15 16 13 10 8 7 10 12 7 3 5 5 6 9 15 18 18 17 17 17 17 17 15 14 13 12 11 10 11 11 12 12 13 13 13 13 14 14 14 14 15 15 16 17 18 18 18 18 18 18 18 19 19 19 19 19 19 17 17 20 20 17 17 17 17 18 19 20 21 20 21
7 8 8 8 11 12 10 9 10 11 10 9 11 16 18 19 20 14 9 8 7 10 13 7 5 7 9 11 11 13 15 15 16 17 16 17 17 16 15 13 12 11 11 11 12 12 13 14 14 13 13 14 14 14 15 16 17 17 18 19 19 19 18 18 19 19 18 18 19 19 20 20 19 20 21 21 19 19 19 19 19 20 21 22 22 22
7 6 5 5 6 5 8 12 13 12 12 12 15 18 17 17 18 14 10 8 7 9 8 5 14 15 12 13 13 13 14 14 15 16 17 17 17 15 14 13 13 12 11 11 12 12 13 13 13 12 12 13 13 13 14 16 17 18 18 19 18 17 17 17 18 18 18 19 19 20 20 21 20 21 21 20 20 20 20 20 21 21 21 22 23 23
6 5 4 2 2 2 5 9 14 14 16 16 16 16 14 14 14 11 10 6 3 5 3 8 18 19 14 14 14 13 13 13 14 17 17 17 17 16 15 14 14 13 13 12 12 12 12 12 12 12 12 13 12 12 12 13 16 17 17 18 17 17 17 17 17 18 18 18 19 20 20 20 20 20 20 20 19 19 19 20 21 21 21 22 22 23
6 5 5 4 6 4 2 4 10 13 15 16 16 14 13 13 11 10 9 4 4 1 5 11 15 16 15 14 14 13 15 15 16 17 18 18 17 16 15 15 14 14 13 12 12 12 12 11 11 12 12 13 13 13 12 13 15 16 16 17 17 17 17 17 17 17 17 18 19 20 20 20 19 20 20 20 20 20 20 20 21 21 21 21 22 22
6 5 7 7 8 7 5 5 8 8 6 7 10 11 10 11 12 11 8 2 6 11 14 16 16 15 13 13 14 15 17 19 18 18 18 18 17 16 15 15 14 13 13 12 12 11 11 11 11 11 12 13 13 13 13 14 15 15 16 16 16 16 17 17 17 17 17 18 19 19 20 20 20 20 21 21 21 21 21 21 22 22 22 21 21 22
5 4 8 9 7 7 8 8 7 8 9 9 7 7 7 8 9 9 8 11 14 15 17 20 19 13 11 15 18 18 18 19 19 19 18 17 16 16 15 14 14 13 12 12 11 11 11 11 11 11 12 12 13 13 13 14 14 15 15 16 16 16 16 16 16 17 17 18 18 19 20 20 20 21 21 22 22 21 22 22 22 23 24 22 22 21
5 5 8 9 7 6 9 11 13 14 15 14 11 8 6 6 8 9 8 9 14 18 19 17 13 9 11 17 19 18 19 19 18 18 18 17 16 15 15 15 13 12 12 11 11 10 10 11 11 12 12 12 12 13 13 13 14 14 15 16 16 16 16 16 16 16 17 18 19 20 20 20 21 21 21 22 22 22 22 22 22 25 27 25 23 23
8 7 6 7 7 7 9 11 13 14 12 9 8 5 2 5 10 11 11 11 13 16 12 8 9 12 15 18 17 16 18 18 17 17 17 17 16 15 15 14 13 13 12 11 11 10 10 10 11 11 11 12 12 12 12 13 13 14 14 15 15 15 15 16 16 17 17 18 19 20 20 20 20 21 22 22 22 22 23 23 23 25 28 28 28 27
11 9 6 6 6 8 9 8 9 10 8 4 3 2 4 3 11 13 14 14 12 10 9 11 15 17 16 17 17 17 17 18 18 18 17 17 16 15 15 14 14 13 12 11 11 10 10 10 10 11 11 11 11 11 12 12 13 13 13 14 15 15 15 16 16 17 18 18 19 19 20 20 21 21 22 22 21 22 23 24 24 24 26 28 31 32
12 9 5 4 6 7 7 7 8 7 3 3 2 1 2 8 15 17 16 14 12 15 18 20 19 18 18 20 21 22 22 20 19 18 16 15 15 15 15 14 13 13 12 11 11 11 10 10 10 11 11 11 11 11 11 12 12 12 13 14 15 15 16 16 17 18 18 19 19 20 20 20 20 21 21 21 22 22 22 22 22 23 24 25 28 32
10 8 5 4 5 6 6 6 5 3 3 4 4 5 8 11 12 13 14 12 10 13 17 19 19 19 22 24 24 25 25 24 21 18 15 14 14 14 14 14 13 12 12 11 11 11 11 10 11 11 11 11 11 11 11 12 12 12 13 13 14 15 16 16 17 18 19 20 20 20 20 20 20 21 21 22 22 22 22 22 21 21 22 22 23 27
9 7 7 6 4 6 6 4 3 3 4 4 5 7 8 6 4 6 8 7 7 11 16 18 19 21 24 25 26 27 27 24 19 14 13 13 13 13 13 13 13 12 12 11 11 11 11 10 11 11 11 11 11 11 11 11 11 12 12 13 14 14 15 16 17 18 19 20 20 21 21 21 21 21 21 22 23 22 22 23 23 22 21 21 21 23
6 6 8 8 5 6 7 5 5 4 3 5 8 9 5 1 4 8 9 6 6 12 17 19 18 22 25 25 26 26 21 16 11 9 12 13 13 13 13 12 12 12 11 11 11 10 10 10 10 10 10 11 11 11 11 11 11 12 12 13 14 14 15 16 17 17 18 19 20 20 21 21 21 21 22 23 23 22 22 22 23 24 22 20 20 20
5 5 7 7 7 7 7 6 6 3 2 4 10 11 8 5 5 8 5 4 8 14 19 20 20 23 25 25 25 22 13 7 6 10 14 14 13 13 13 12 12 11 11 11 10 10 10 9 9 9 9 10 11 11 11 11 11 12 12 13 14 14 15 16 16 17 17 18 18 19 20 21 21 22 22 23 23 23 23 21 21 23 23 21 20 19
3 4 6 5 5 7 8 5 3 2 3 6 10 11 10 7 8 8 5 5 13 18 20 21 22 23 24 24 22 14 6 5 11 16 17 16 14 13 12 12 12 11 11 11 10 9 9 9 8 9 9 10 10 10 10 10 11 12 12 12 13 14 15 15 16 16 16 17 18 19 19 20 21 21 22 23 23 23 24 22 21 22 23 23 22 21
4 4 5 5 5 7 6 4 4 4 4 7 10 11 10 8 7 6 2 9 20 24 22 22 23 23 23 20 14 8 8 14 20 22 20 17 15 14 13 13 12 11 11 10 9 9 8 7 8 8 9 9 9 10 10 10 11 12 12 12 13 14 14 14 15 15 16 16 17 18 19 20 21 21 21 22 22 23 24 24 23 22 22 23 24 23
4 5 6 6 6 6 5 5 6 4 2 4 9 10 7 4 3 2 8 19 27 26 23 23 24 23 20 16 13 15 20 24 26 23 20 18 17 16 14 13 12 11 10 9 8 8 7 7 7 8 8 9 9 10 10 11 11 12 12 13 13 13 13 14 14 15 15 16 16 17 18 19 20 21 21 22 22 23 24 24 24 23 22 23 24 24
1 2 5 3 1 5 7 6 4 2 3 7 10 7 1 1 5 13 19 24 26 26 26 25 23 21 19 18 21 24 26 26 24 22 20 19 17 16 14 13 12 11 10 9 8 7 7 7 8 8 8 8 9 9 10 11 11 11 12 13 13 13 13 13 14 15 15 15 16 17 17 18 19 20 21 22 22 22 23 24 24 25 24 23 23 24
5 4 2 4 4 3 4 4 2 5 10 11 8 6 5 7 14 21 24 24 25 25 26 24 20 20 21 24 27 27 26 25 23 22 21 19 17 16 14 13 12 11 10 9 8 7 7 8 8 7 8 8 8 9 9 10 11 11 12 13 13 13 14 14 14 14 15 15 16 16 17 17 17 18 19 21 22 22 22 23 24 25 25 24 23 23
6 5 6 7 6 5 6 6 7 12 14 10 8 11 14 16 19 22 24 26 25 24 23 23 23 23 24 27 28 26 25 24 23 21 20 19 17 16 14 13 12 11 10 9 8 8 8 8 7 7 7 7 7 8 8 9 10 11 12 12 13 13 13 13 14 14 15 15 16 16 17 17 16 16 17 19 21 23 23 23 23 24 25 24 24 24
6 6 7 8 8 10 11 9 10 14 14 13 14 16 18 19 21 23 24 25 24 22 22 24 26 26 26 26 26 25 25 24 22 21 20 18 17 16 14 13 12 10 9 9 8 7 7 7 7 7 7 7 7 7 7 8 9 10 11 12 13 13 13 13 14 15 15 15 16 16 16 17 16 16 16 16 18 20 22 22 22 23 24 23 23 23
4 2 5 7 8 6 6 7 10 14 15 16 17 17 18 21 22 22 22 23 23 23 24 25 27 27 25 24 25 25 25 24 22 21 19 18 17 16 14 13 11 10 9 8 7 6 6 6 6 6 7 7 7 7 7 7 8 9 10 11 12 13 13 12 13 14 15 15 15 15 16 17 17 16 16 16 15 17 20 20 20 21 23 24 22 22
3 3 6 8 5 4 7 10 13 15 16 16 16 18 19 21 21 21 22 23 24 24 25 26 26 26 24 24 25 26 25 23 22 21 19 17 16 15 14 12 11 10 8 7 6 6 6 6 6 7 7 7 7 7 7 8 8 8 10 11 12 12 13 13 13 14 14 15 15 16 16 17 17 17 18 16 15 17 19 19 18 18 21 23 23 21
4 4 6 9 10 9 10 13 15 15 14 14 16 18 19 21 22 23 23 24 25 27 27 25 25 24 25 25 25 25 24 22 20 19 19 17 16 15 14 12 11 10 9 8 7 7 7 7 7 7 7 7 7 8 8 8 8 8 9 10 11 12 13 13 12 13 14 14 15 15 16 17 17 18 18 17 17 19 19 18 18 18 18 20 22 21
5 6 7 9 9 7 9 15 16 11 10 13 17 18 19 21 23 24 25 26 26 27 27 26 25 25 25 25 25 23 23 21 20 19 18 17 16 15 14 13 12 10 10 9 9 8 8 8 7 7 7 7 8 8 8 8 8 8 9 9 10 12 13 13 12 12 13 14 15 15 16 17 17 18 18 18 18 19 18 16 18 19 19 18 19 20
5 7 5 5 6 7 15 21 17 11 14 17 18 19 20 21 23 24 25 26 26 26 27 27 27 27 25 24 22 21 22 21 20 19 18 17 16 15 13 12 12 11 10 10 10 9 9 8 7 7 7 7 7 8 8 8 8 8 9 9 10 11 13 13 12 12 13 14 14 15 16 16 16 17 18 18 19 19 17 15 16 18 19 19 18 18
Wind_Direction
189 198 204 209 208 205 206 210 221 228 224 206 199 214 210 198 205 186 177 178 185 198 194 196 182 134 119 107 100 99 100 102 105 110 116 120 126 126 127 123 107 99 92 94 97 94 92 89 85 91 90 92 102 102 107 106 93 79 54 13 331 310 300 303 265 259 263 254 258 259 256 256 254 253 253 253 256 257 251 247 249 256 262 254 247 255
194 209 208 208 210 208 207 210 221 233 245 225 201 207 207 203 205 172 159 170 181 202 201 191 173 139 123 104 99 96 92 83 82 86 86 98 96 95 109 114 100 94 91 89 91 90 86 84 83 87 89 92 102 104 109 112 91 64 64 352 262 252 271 310 265 242 255 259 261 262 259 259 258 256 254 252 255 261 260 262 263 261 263 262 258 261
200 216 211 205 210 212 206 209 220 225 231 229 208 208 207 202 197 157 151 172 186 206 193 171 157 139 129 110 103 95 89 81 77 78 74 80 83 80 87 97 95 92 87 81 79 83 86 87 90 92 92 95 102 105 118 127 100 79 104 237 243 242 248 280 277 255 245 251 260 266 265 269 267 258 257 259 261 265 269 274 276 271 268 270 267 263
201 211 210 203 207 210 202 205 214 215 217 225 216 210 204 201 199 165 160 180 193 210 181 161 156 140 136 130 119 101 96 90 82 80 76 75 77 76 76 80 83 83 80 76 72 73 79 88 94 92 84 88 95 88 88 91 69 66 4 335 288 277 286 287 287 271 233 241 264 274 274 279 276 266 266 271 270 271 274 277 275 272 272 272 268 264
209 204 203 202 203 206 202 202 207 207 208 221 224 220 211 204 194 157 162 179 192 206 187 178 179 164 165 158 140 112 103 98 90 85 80 78 79 77 75 71 70 73 73 74 70 67 70 76 82 83 86 99 97 76 67 59 40 31 352 352 345 327 330 309 307 306 243 248 277 282 285 289 289 285 284 282 280 283 285 282 277 273 270 266 267 270
218 199 194 199 198 201 206 201 201 203 203 213 224 231 225 205 184 166 172 177 187 199 187 190 198 186 184 172 152 135 113 103 94 87 81 80 81 75 71 69 67 70 74 74 73 70 69 69 66 69 88 104 93 74 74 84 70 48 24 13 10 348 332 316 315 320 318 289 279 281 290 295 296 292 286 280 281 285 284 281 279 277 274 270 270 272
217 195 189 200 196 197 206 200 197 201 212 211 206 225 232 209 190 176 174 178 193 199 185 196 213 186 180 177 162 151 124 115 107 92 87 82 79 74 69 71 71 71 75 76 75 75 73 70 65 61 67 69 64 59 61 82 97 92 95 66 33 354 334 328 318 323 331 299 279 280 289 296 295 288 286 286 285 286 284 281 279 279 280 280 279 276
210 198 189 196 193 193 202 199 194 199 218 217 180 206 231 215 195 179 177 193 204 198 186 196 217 209 179 175 163 155 139 131 126 105 94 88 82 79 74 73 74 73 74 76 73 72 68 64 61 57 57 55 53 52 48 51 55 70 138 139 103 139 18 352 333 317 293 277 277 287 292 292 289 286 286 288 289 288 286 283 281 280 281 281 280 279
198 205 187 186 191 195 204 202 196 197 217 226 177 192 225 221 201 186 189 209 204 203 198 195 212 222 188 171 161 160 157 145 137 123 99 92 89 85 80 76 76 74 72 73 69 65 61 57 56 53 53 52 49 46 45 44 43 47 64 78 307 224 221 348 344 336 308 288 281 287 292 285 283 284 282 285 290 291 286 286 286 283 281 281 279 277
193 207 188 185 198 202 201 203 200 196 215 229 189 182 208 221 208 196 202 213 208 217 214 193 205 225 198 163 168 178 171 152 136 127 108 99 95 87 84 79 75 75 73 70 66 62 59 55 54 52 51 48 43 41 39 40 41 43 41 30 18 341 306 305 318 330 320 302 285 279 279 275 275 278 280 280 280 280 280 282 285 281 277 275 275 277
185 187 187 194 209 207 197 202 201 194 212 228 197 179 201 211 211 211 216 219 215 218 212 201 207 221 211 161 181 200 166 149 137 130 127 113 102 92 87 84 80 80 77 71 65 60 56 53 52 51 50 46 41 38 35 35 35 32 31 28 23 18 5 343 329 331 320 308 302 293 285 279 277 276 277 276 274 275 276 278 280 279 275 270 272 277
181 175 196 204 209 207 196 200 199 193 212 223 198 189 202 198 204 214 218 223 227 219 205 204 208 212 220 188 170 140 127 139 137 130 134 121 109 102 93 90 85 81 78 71 63 56 51 48 47 46 46 43 38 36 32 32 33 31 30 28 23 20 15 4 352 349 344 317 297 295 296 296 292 287 284 283 285 286 283 282 282 282 277 269 270 275
193 189 200 199 204 205 198 197 193 191 208 211 193 201 203 188 196 206 206 211 228 229 205 204 212 208 203 92 122 114 116 128 123 121 129 120 113 107 100 94 85 80 75 68 60 54 48 42 41 40 38 36 33 32 30 28 29 29 30 27 22 18 18 23 17 5 359 341 298 289 293 296 296 297 297 295 295 293 289 290 288 282 276 269 269 270
198 193 194 197 199 200 205 200 186 188 199 197 194 202 202 190 192 200 203 204 219 231 213 211 216 191 114 84 106 113 117 117 112 113 116 111 108 102 96 91 84 79 73 67 60 53 46 39 38 37 34 33 29 27 25 24 23 24 23 22 19 13 11 20 26 20 11 355 342 324 304 296 292 289 289 292 294 291 290 292 287 280 276 273 273 271
199 194 193 201 190 188 208 211 188 190 194 193 202 209 209 205 197 197 206 206 207 213 212 219 221 173 135 133 116 116 120 118 114 113 111 107 105 99 91 86 83 80 73 69 61 52 44 37 35 34 33 32 28 26 24 22 23 22 20 17 15 10 4 4 8 11 8 357 350 345 329 314 300 286 277 281 291 290 288 289 288 282 279 277 275 273
204 199 188 198 192 184 205 212 190 192 195 193 207 216 214 212 202 198 215 230 225 214 202 205 204 80 115 133 125 123 124 123 120 121 121 114 109 103 94 87 83 80 73 67 59 50 42 36 33 32 32 31 28 28 28 27 26 24 23 19 14 12 5 360 0 0 358 352 345 335 322 314 300 287 277 274 286 291 288 289 291 287 280 277 276 274
201 202 181 185 194 190 196 209 199 195 193 191 205 215 215 215 214 207 209 243 270 233 198 161 109 102 122 130 131 129 125 126 128 128 129 125 119 112 102 93 85 78 71 63 55 46 39 34 32 31 31 30 30 29 28 28 26 24 25 20 16 15 9 4 3 358 353 349 343 329 317 313 300 288 280 273 280 292 294 294 295 292 286 283 279 275
198 205 180 178 191 189 189 208 215 204 199 199 202 209 211 216 221 220 211 207 220 227 202 164 148 146 155 151 141 139 136 137 135 132 132 130 126 118 108 102 91 82 73 62 53 44 38 34 32 33 33 32 30 27 25 26 26 24 23 20 17 15 12 10 5 357 354 349 344 339 331 326 314 298 285 278 274 280 290 296 298 295 291 288 285 279
200 203 177 181 191 184 182 204 218 206 211 221 207 200 210 217 212 209 217 215 208 213 206 179 168 172 187 168 154 156 151 145 143 140 137 132 129 123 112 107 98 88 79 67 56 48 43 40 37 38 39 36 33 28 26 25 26 24 20 19 18 13 10 13 6 356 357 351 345 349 344 334 325 313 299 289 283 278 282 292 298 297 294 289 288 286
201 204 177 184 190 181 177 198 206 194 210 227 218 202 214 228 214 206 214 219 213 212 209 195 185 187 199 168 161 164 158 150 146 141 137 131 128 124 113 109 101 90 81 71 62 54 48 45 44 42 42 39 34 29 25 24 25 22 19 18 16 10 7 8 5 359 358 353 350 355 350 343 340 326 312 301 293 288 283 279 280 286 290 288 285 282
202 204 183 181 187 187 185 195 202 194 196 213 217 204 207 215 211 213 216 216 220 217 207 202 191 155 34 156 162 161 159 153 143 135 134 130 125 118 110 108 101 90 82 73 65 57 52 50 47 45 45 42 36 31 26 25 25 22 20 19 13 8 4 3 6 2 356 352 353 359 354 349 348 335 322 313 301 296 290 281 274 272 273 276 280 281
200 200 188 184 188 195 193 190 200 204 196 195 207 209 205 203 205 212 214 215 222 223 215 206 179 96 6 332 160 153 149 142 136 134 131 125 120 113 107 104 98 91 84 75 66 58 55 53 50 49 49 44 36 31 27 26 27 23 21 19 14 11 6 4 8 0 352 352 355 358 356 351 349 342 333 326 315 305 298 293 287 280 274 270 270 273
204 206 191 194 195 194 191 192 202 209 203 196 205 217 208 199 208 214 210 212 216 226 229 212 149 84 3 356 99 119 124 128 132 132 126 122 117 111 107 102 95 90 83 75 68 61 59 58 57 54 48 43 37 33 30 29 28 25 23 21 16 14 9 7 9 0 353 357 357 356 358 355 351 349 345 338 328 317 307 303 301 295 288 280 272 271
195 223 196 197 201 193 188 192 197 207 212 203 204 219 218 204 209 219 222 216 212 223 230 212 142 116 45 34 73 102 117 124 127 127 124 121 117 111 108 103 96 91 86 79 72 68 67 63 60 53 45 42 38 33 30 28 26 24 22 22 18 15 11 8 9 4 358 359 359 358 359 357 353 353 351 343 336 330 320 312 309 305 300 291 282 281
181 216 195 189 191 186 190 196 192 198 216 214 201 209 217 212 209 219 232 223 219 230 226 207 139 131 129 100 95 109 119 122 123 125 124 120 118 114 111 106 100 95 90 85 80 75 71 66 62 55 45 39 35 31 29 25 24 22 20 20 17 13 11 7 6 6 2 358 359 359 357 355 353 354 353 345 341 341 332 320 312 307 304 299 291 289
187 211 195 200 200 187 188 197 194 193 203 215 210 205 212 216 209 207 220 219 217 232 228 204 131 126 134 135 132 126 124 122 123 124 122 119 119 117 114 111 105 100 96 92 86 79 71 66 62 58 46 36 32 31 27 23 23 22 19 19 18 12 9 7 5 6 3 359 360 359 357 356 354 354 352 348 346 344 337 327 319 312 307 303 298 292
190 208 195 221 227 207 203 199 194 194 196 205 213 208 211 222 216 205 209 214 210 226 233 147 129 137 142 144 142 136 130 126 126 126 123 122 120 117 118 115 109 105 101 96 88 77 70 64 59 55 46 37 33 28 24 22 21 20 19 19 17 13 9 7 6 4 2 1 0 359 357 356 354 352 350 349 348 344 338 332 325 318 313 308 303 297
188 186 176 178 181 266 259 207 189 194 199 201 207 208 211 222 227 219 207 199 222 242 228 124 132 140 147 150 146 140 135 130 130 130 127 125 122 120 120 116 111 106 101 94 84 73 68 62 55 50 43 37 34 30 25 22 19 19 19 17 14 12 10 7 6 4 3 2 1 359 357 355 354 353 351 349 349 346 343 338 330 323 319 314 309 303
193 178 169 157 157 172 260 212 194 200 205 205 203 201 205 211 215 224 229 255 341 38 140 140 137 133 140 149 145 139 137 131 130 130 127 125 123 122 121 117 113 107 98 89 79 71 67 60 52 47 43 38 35 31 26 21 19 19 18 14 12 11 10 7 6 6 5 4 2 360 357 355 355 354 353 352 352 351 349 345 338 333 326 320 314 308
196 176 168 163 151 152 160 176 189 188 178 184 189 188 202 213 206 210 222 197 88 104 124 131 124 119 132 140 134 131 129 124 125 126 125 125 124 124 122 117 114 106 95 87 79 72 66 60 53 47 43 39 34 30 28 24 20 19 17 14 11 11 9 8 8 8 7 5 4 1 358 357 357 356 356 356 355 354 353 350 345 343 337 328 321 314
176 160 166 161 135 135 151 150 152 143 114 103 123 152 176 192 177 155 133 112 104 106 116 121 117 113 124 127 125 125 124 122 125 125 124 125 125 124 121 116 113 106 94 89 84 75 67 62 56 50 44 39 34 30 29 26 21 19 18 14 12 12 11 10 11 10 9 7 4 2 0 359 359 359 358 358 357 356 356 354 352 352 349 340 332 325
169 173 173 170 154 147 151 141 134 129 114 100 94 97 123 143 130 114 108 114 124 127 127 126 125 129 134 129 126 126 126 126 126 126 125 125 124 124 121 116 111 104 96 91 84 76 69 62 55 50 45 39 36 32 29 27 22 20 18 15 14 13 12 13 13 12 11 8 5 4 3 2 1 1 0 359 359 359 358 358 358 1 1 356 348 341
177 179 178 179 165 146 146 142 139 137 130 116 97 72 58 110 109 98 81 82 116 137 143 142 139 141 140 135 130 129 130 128 127 127 126 125 125 123 118 114 109 104 98 91 83 75 69 63 56 51 46 40 36 32 29 27 23 21 20 17 16 15 15 15 14 13 12 9 8 7 5 4 3 4 2 1 1 360 359 360 1 4 5 3 0 356
182 184 190 183 156 137 144 158 174 178 173 143 98 316 289 111 103 96 83 74 84 99 99 107 125 135 139 137 133 130 129 126 124 124 123 123 125 121 116 114 109 105 98 90 84 76 68 65 58 52 47 42 37 33 31 28 26 25 22 21 20 20 19 18 16 15 13 10 9 7 5 4 4 3 2 2 1 359 360 0 0 2 5 5 4 3
179 177 173 165 150 137 146 175 195 195 175 126 134 297 27 87 93 88 80 74 80 94 101 110 125 136 134 131 129 126 125 123 119 117 118 121 123 121 117 113 108 104 99 91 84 76 70 68 60 53 48 43 39 35 32 30 29 27 25 24 24 23 22 21 18 16 15 12 10 7 4 4 3 3 2 1 0 359 359 359 359 360 3 4 4 5
177 166 144 140 145 143 159 188 191 159 108 118 137 114 99 110 115 95 74 65 80 107 116 121 127 130 128 127 127 126 124 118 111 108 114 119 121 120 117 112 108 105 99 93 86 79 74 69 62 56 50 46 43 39 35 33 30 30 28 26 25 24 22 22 20 18 16 14 12 9 7 5 3 3 3 1 1 0 359 359 358 357 359 0 2 5
192 182 149 140 158 163 156 135 109 135 151 147 155 154 138 132 132 104 86 77 93 114 122 125 126 127 129 129 129 128 124 115 105 104 113 119 119 117 114 111 109 104 99 96 89 83 78 71 65 60 53 50 46 41 38 35 31 31 30 27 26 24 23 22 20 18 16 14 14 11 9 8 6 4 4 3 2 1 359 360 359 357 357 359 359 2
201 194 155 151 177 181 161 144 148 171 177 169 179 183 173 82 78 106 107 103 119 130 133 132 131 133 134 133 134 135 128 113 104 118 128 126 122 118 115 112 109 105 102 99 93 86 81 73 68 61 53 51 47 42 39 36 34 34 31 29 27 24 23 22 19 17 15 13 13 12 11 11 9 8 7 5 3 1 359 358 359 359 358 357 358 359
184 183 174 174 177 175 178 181 173 156 85 143 164 173 186 203 174 150 139 135 147 148 144 139 137 139 140 140 143 146 140 114 119 143 143 135 128 124 121 116 113 110 105 102 98 92 84 74 67 60 53 50 45 41 40 36 35 33 30 29 28 25 24 22 18 16 14 11 11 11 11 11 11 10 9 8 6 4 1 358 359 0 360 358 358 357
211 183 178 185 178 178 188 181 131 66 60 127 148 161 170 177 184 195 214 171 155 155 151 145 143 143 144 146 152 160 159 137 144 148 145 139 132 129 125 119 116 114 110 108 103 92 81 72 64 59 54 50 45 42 41 38 36 35 31 29 27 25 23 20 17 16 13 11 11 10 10 11 11 10 10 9 8 7 5 4 1 0 2 2 359 356
207 173 169 194 190 176 177 146 99 79 90 122 141 155 155 157 185 216 206 141 149 153 151 147 145 144 146 150 155 147 117 125 137 140 139 138 135 131 125 119 117 115 114 113 105 93 83 75 69 63 57 54 50 46 43 40 39 36 32 29 27 24 20 17 16 14 12 12 11 10 10 10 10 11 10 9 9 8 8 7 5 3 3 3 1 358
188 167 173 196 197 181 160 120 114 110 95 139 144 141 144 171 192 124 109 131 143 146 146 145 143 142 143 141 133 121 115 121 129 134 137 138 135 130 127 123 121 119 117 114 107 98 91 84 77 69 62 57 52 49 45 42 40 37 32 29 26 21 18 15 14 13 12 13 12 11 11 9 9 12 12 9 9 9 9 9 7 6 6 4 4 3
64 200 179 149 161 194 165 136 131 129 150 168 156 132 80 297 122 118 123 131 137 138 140 140 140 140 136 128 124 123 122 124 129 133 135 135 132 130 130 127 125 121 116 114 112 106 99 93 83 71 63 58 53 49 46 43 41 37 32 30 26 21 18 16 14 14 13 12 12 12 12 10 10 13 13 12 11 10 10 10 9 9 9 7 7 7
14 320 192 82 8 270 172 133 91 108 134 160 162 123 96 109 124 130 131 130 133 136 137 136 137 137 134 128 126 126 126 129 132 133 133 133 133 133 130 127 126 122 117 113 109 104 100 94 84 74 66 61 57 52 47 44 43 37 33 31 25 21 20 18 16 16 15 14 13 12 12 11 11 13 14 14 15 14 13 11 11 11 11 10 10 9
37 43 87 75 44 41 75 88 95 103 116 127 115 108 115 119 126 133 131 130 133 136 135 134 134 134 133 129 127 128 130 132 134 134 134 135 134 132 130 128 126 122 119 115 106 101 99 94 86 77 68 61 58 54 47 43 41 37 34 32 26 22 21 19 19 19 16 16 16 13 13 12 11 12 13 14 16 17 15 13 13 12 12 11 12 12
76 85 85 89 99 84 68 77 102 106 108 109 105 111 119 122 127 131 129 130 133 134 135 136 134 134 134 132 130 131 133 134 134 135 135 134 133 132 131 129 125 120 118 115 107 102 100 95 87 77 68 62 56 52 47 42 39 36 33 31 28 25 23 21 21 21 19 19 17 15 15 14 12 12 11 11 14 16 15 14 13 14 14 14 13 13
105 104 97 120 146 129 80 94 113 111 110 110 109 114 120 123 129 132 129 130 132 131 132 134 133 134 135 133 133 133 134 135 136 135 135 134 133 133 131 127 122 118 118 116 109 105 102 96 89 78 69 63 55 49 43 37 36 36 33 31 28 25 24 22 22 21 20 20 19 16 15 15 15 13 11 10 13 17 17 17 15 15 17 18 16 15
123 158 123 106 109 110 114 126 123 113 113 114 114 120 125 127 130 131 129 129 130 130 131 132 133 135 136 135 136 135 134 136 137 135 135 134 133 132 129 126 122 117 117 117 113 109 104 96 90 79 70 62 53 46 40 37 37 36 34 32 29 26 25 23 22 23 22 21 20 17 16 16 15 13 12 10 8 9 12 18 20 17 17 20 20 18
112 146 112 94 99 107 121 135 131 119 117 119 119 122 127 130 131 130 128 129 131 132 132 132 134 136 136 137 137 136 136 137 137 136 135 134 132 131 128 126 123 118 116 117 113 111 107 98 90 81 70 62 52 44 41 40 39 36 34 33 30 28 27 24 23 24 24 22 21 19 16 16 15 13 13 12 6 1 1 9 18 19 16 16 19 21
126 130 104 111 132 139 147 155 151 135 129 132 130 129 131 133 133 131 130 132 134 135 134 134 135 136 136 137 139 138 137 138 138 137 135 132 132 132 129 127 125 119 117 116 112 110 107 97 90 81 70 60 51 44 42 42 39 36 34 33 31 29 28 26 25 25 25 23 22 19 18 17 16 13 13 13 10 3 357 358 7 12 12 11 14 19
109 127 130 145 150 142 153 161 157 135 132 140 140 137 137 137 137 136 135 137 138 137 136 136 136 137 138 141 143 141 138 139 139 137 134 132 131 131 129 128 126 121 119 118 115 112 107 97 87 79 66 57 51 45 42 40 39 37 36 35 32 30 29 27 26 25 24 22 20 19 18 17 15 14 12 12 11 8 4 360 358 360 4 8 11 13